Location: Gu�tanj
(46.5431°N, 14.9692°E)
Time: 07:22:15
(UTC+00:00)

Okean 1 - Pass Details

Date: 03 March 2021
Orbit: 538 x 554 km, 82.5° (Epoch: 18 April)

Event Time Altitude Azimuth Distance (km) Brightness Sun altitude
Rises 17:54:11 0° 348° (NNW) 2,732 7.1 -12.0°
Reaches altitude 10° 17:56:22 10° 347° (NNW) 1,836 6.2 -12.4°
Maximum altitude 18:00:23 70° 264° (W) 592 3.6 -13.1°
Drops below altitude 10° 18:04:23 10° 180° (S) 1,828 5.9 -13.7°
Sets 18:06:33 0° 178° (S) 2,719 6.8 -14.1°
